Вернуться в каталог

SHIYAN 10

SY-10

АктивенНаукаHEO
NORAD 49258·PAYLOAD·🇨🇳 China

Запущен Sep 27, 2021 с Xichang Satellite Launch Center

Loading…

Ближайшие Пролёты (ближайшие 24 часа)

TLE

СвежийSource: Space-Track

Эпоха: Sep 14, 2026, 03:12 UTC

1 49258U 21087A   26257.13376193  .00000665  00000-0  00000-0 0  9998
2 49258  63.1342 209.9958 6885712 269.7228  17.9820  2.00591926 36318

Отслеживайте SHIYAN 10 в реальном времени с AllMySat

Download on the App Store